Maple Lake, MN

5:16 PM CDT on April 21, 2018 (GMT -0500)
Maple Lake Municipal

Weather History for KMGG - February, 2014

Change the Weather History Date:

Saturday, February 22, 2014

  Actual Average (KSTC) Record (KSTC)
Temperature  
Mean Temperature 8 °F -  
Max Temperature 14 °F 30 °F 55 °F (1961)
Min Temperature 2 °F 12 °F -19 °F (1972)
Degree Days  
Heating Degree Days 57    
Moisture  
Dew Point 2 °F    
Average Humidity 74    
Maximum Humidity 81    
Minimum Humidity 64    
Precipitation  
Precipitation 0.00 in - - ()
Sea Level Pressure  
Sea Level Pressure 29.96 in    
Wind  
Wind Speed 11 mph (West)    
Max Wind Speed 18 mph    
Max Gust Speed 24 mph    
Visibility 10 miles    
Events      
Averages and records for this station are not official NWS values.
T = Trace of Precipitation, MM = Missing Value Source: NWS Daily Summary

Daily Weather History Graph

Daily Weather History Graph

Search for Another Location

Airport or City:

Astronomy

Feb. 22, 2014 Rise Set
Actual Time 7:05 AM CST 5:53 PM CST
Civil Twilight 6:36 AM CST 6:23 PM CST
Nautical Twilight 6:01 AM CST 6:57 PM CST
Astronomical Twilight 5:27 AM CST 7:31 PM CST
Moon 1:08 AM CST (2/22) 10:57 AM CST (2/22)
Length of Visible Light 11h 47m
Length of Day
10h 47m
Waning Gibbous, 50% of the Moon is Illuminated
Feb 22
Waning Gibbous
Mar 1
New
Mar 8
First Quarter
Mar 16
Full
Mar 23
Last Quarter

Hourly Weather History & Observations

Time (CST) Temp. Windchill Dew Point Humidity Pressure Visibility Wind Dir Wind Speed Gust Speed Precip Events Conditions
12:17 AM 10.0 °F -4.5 °F 4.8 °F 79% 29.78 in 10.0 mi West 11.5 mph 18.4 mph N/A   Clear
12:37 AM 9.5 °F -6.6 °F 4.1 °F 79% 29.78 in 10.0 mi West 13.8 mph 20.7 mph N/A   Clear
12:56 AM 9.3 °F -8.0 °F 4.1 °F 79% 29.80 in 10.0 mi West 16.1 mph - N/A   Clear
1:17 AM 8.6 °F -7.7 °F 3.6 °F 80% 29.80 in 10.0 mi West 13.8 mph 17.3 mph N/A   Clear
1:36 AM 8.2 °F -7.5 °F 3.2 °F 80% 29.81 in 10.0 mi West 12.7 mph 17.3 mph N/A   Clear
1:57 AM 8.1 °F -7.0 °F 2.7 °F 79% 29.81 in 10.0 mi West 11.5 mph - N/A   Clear
2:17 AM 7.7 °F -4.8 °F 2.3 °F 79% 29.82 in 10.0 mi West 8.1 mph - N/A   Clear
2:36 AM 7.3 °F -6.2 °F 2.1 °F 79% 29.82 in 10.0 mi West 9.2 mph - N/A   Clear
2:57 AM 6.8 °F -8.6 °F 1.4 °F 79% 29.82 in 10.0 mi West 11.5 mph 17.3 mph N/A   Clear
3:17 AM 6.8 °F -6.9 °F 1.4 °F 79% 29.83 in 10.0 mi West 9.2 mph - N/A   Clear
3:36 AM 6.1 °F -7.8 °F 1.2 °F 80% 29.83 in 10.0 mi West 9.2 mph - N/A   Clear
3:57 AM 5.7 °F -9.1 °F 0.5 °F 79% 29.84 in 10.0 mi West 10.4 mph - N/A   Clear
4:17 AM 5.4 °F -9.6 °F 0.3 °F 80% 29.85 in 10.0 mi West 10.4 mph - N/A   Clear
4:37 AM 5.0 °F -9.1 °F -0.2 °F 79% 29.86 in 10.0 mi West 9.2 mph 16.1 mph N/A   Clear
4:57 AM 4.6 °F -8.5 °F -0.4 °F 80% 29.86 in 10.0 mi West 8.1 mph - N/A   Clear
5:17 AM 4.3 °F -9.0 °F -0.8 °F 80% 29.87 in 10.0 mi West 8.1 mph - N/A   Clear
5:36 AM 4.1 °F -8.0 °F -1.3 °F 78% 29.87 in 10.0 mi West 6.9 mph - N/A   Clear
5:57 AM 3.7 °F -9.6 °F -1.3 °F 80% 29.88 in 10.0 mi West 8.1 mph - N/A   Clear
6:17 AM 3.4 °F -11.1 °F -1.5 °F 80% 29.89 in 10.0 mi West 9.2 mph - N/A   Clear
6:36 AM 3.2 °F -10.3 °F -1.8 °F 80% 29.90 in 10.0 mi West 8.1 mph 16.1 mph N/A   Clear
6:57 AM 2.7 °F -10.9 °F -2.2 °F 80% 29.92 in 10.0 mi West 8.1 mph - N/A   Clear
7:16 AM 2.3 °F -10.2 °F -2.2 °F 81% 29.92 in 10.0 mi West 6.9 mph - N/A   Clear
7:37 AM 2.5 °F -10.0 °F -2.4 °F 80% 29.93 in 10.0 mi West 6.9 mph - N/A   Clear
7:57 AM 2.8 °F -10.7 °F -2.2 °F 79% 29.93 in 10.0 mi West 8.1 mph - N/A   Clear
8:17 AM 3.7 °F -9.6 °F -2.2 °F 76% 29.93 in 10.0 mi West 8.1 mph - N/A   Clear
8:36 AM 4.1 °F -11.1 °F -2.0 °F 76% 29.93 in 10.0 mi West 10.4 mph - N/A   Clear
8:57 AM 5.0 °F -9.1 °F -1.7 °F 74% 29.94 in 10.0 mi West 9.2 mph - N/A   Clear
9:16 AM 5.7 °F -9.9 °F -1.3 °F 73% 29.94 in 10.0 mi West 11.5 mph - N/A   Clear
9:37 AM 6.4 °F -9.0 °F -0.9 °F 72% 29.95 in 10.0 mi WNW 11.5 mph 18.4 mph N/A   Clear
9:57 AM 6.8 °F -10.7 °F -0.9 °F 71% 29.96 in 10.0 mi West 15.0 mph 18.4 mph N/A   Clear
10:17 AM 8.2 °F -6.0 °F -0.0 °F 69% 29.97 in 10.0 mi West 10.4 mph - N/A   Clear
10:36 AM 9.0 °F -5.1 °F 0.5 °F 69% 29.97 in 10.0 mi West 10.4 mph - N/A   Clear
10:57 AM 9.9 °F -4.7 °F 1.0 °F 68% 29.98 in 10.0 mi West 11.5 mph - N/A   Clear
11:17 AM 10.0 °F -5.9 °F 0.9 °F 66% 29.97 in 10.0 mi West 13.8 mph - N/A   Clear
11:37 AM 10.8 °F -2.8 °F 1.4 °F 66% 29.98 in 10.0 mi West 10.4 mph 17.3 mph N/A   Clear
11:57 AM 11.1 °F -3.2 °F 1.9 °F 67% 29.98 in 10.0 mi West 11.5 mph 16.1 mph N/A   Clear
12:16 PM 11.8 °F -3.0 °F 2.1 °F 65% 29.98 in 10.0 mi West 12.7 mph 20.7 mph N/A   Clear
12:37 PM 12.2 °F -3.1 °F 2.5 °F 65% 29.98 in 10.0 mi West 13.8 mph 17.3 mph N/A   Clear
12:57 PM 12.2 °F -3.1 °F 2.7 °F 66% 29.98 in 10.0 mi West 13.8 mph 19.6 mph N/A   Clear
1:17 PM 12.7 °F -1.8 °F 2.7 °F 64% 29.98 in 10.0 mi West 12.7 mph - N/A   Clear
1:37 PM 13.1 °F -1.4 °F 2.8 °F 64% 29.99 in 10.0 mi West 12.7 mph - N/A   Clear
1:57 PM 13.6 °F -0.7 °F 3.4 °F 64% 29.99 in 10.0 mi West 12.7 mph 19.6 mph N/A   Clear
2:17 PM 13.5 °F -3.7 °F 3.2 °F 64% 29.99 in 10.0 mi West 18.4 mph 24.2 mph N/A   Clear
2:36 PM 14.0 °F -2.0 °F 3.9 °F 64% 29.99 in 10.0 mi West 16.1 mph 23.0 mph N/A   Clear
2:57 PM 14.0 °F 0.5 °F 3.7 °F 64% 29.99 in 10.0 mi West 11.5 mph 21.9 mph N/A   Clear
3:17 PM 14.2 °F 3.1 °F 4.3 °F 65% 30.00 in 10.0 mi West 8.1 mph 20.7 mph N/A   Clear
3:37 PM 14.2 °F 0.7 °F 4.3 °F 65% 30.00 in 10.0 mi West 11.5 mph 16.1 mph N/A   Clear
3:56 PM 13.6 °F -2.4 °F 3.9 °F 65% 30.00 in 10.0 mi WNW 16.1 mph 19.6 mph N/A   Clear
4:17 PM 13.5 °F -3.2 °F 3.9 °F 66% 30.00 in 10.0 mi West 17.3 mph 21.9 mph N/A   Clear
4:37 PM 13.1 °F -2.0 °F 4.1 °F 67% 30.01 in 10.0 mi WNW 13.8 mph 21.9 mph N/A   Clear
4:57 PM 12.9 °F -2.2 °F 4.1 °F 68% 30.01 in 10.0 mi West 13.8 mph 19.6 mph N/A   Clear
5:17 PM 12.4 °F -0.8 °F 4.1 °F 69% 30.02 in 10.0 mi West 10.4 mph - N/A   Clear
5:37 PM 11.5 °F -0.2 °F 3.9 °F 72% 30.03 in 10.0 mi West 8.1 mph - N/A   Clear
5:57 PM 11.1 °F -4.5 °F 3.6 °F 72% 30.03 in 10.0 mi West 13.8 mph 20.7 mph N/A   Clear
6:17 PM 10.4 °F -4.1 °F 3.2 °F 73% 30.04 in 10.0 mi West 11.5 mph 18.4 mph N/A   Clear
6:37 PM 10.0 °F -2.9 °F 3.0 °F 73% 30.05 in 10.0 mi West 9.2 mph - N/A   Clear
6:56 PM 9.5 °F -4.4 °F 3.0 °F 75% 30.05 in 10.0 mi West 10.4 mph - N/A   Clear
7:17 PM 9.1 °F -3.0 °F 2.8 °F 76% 30.06 in 10.0 mi West 8.1 mph - N/A   Clear
7:37 PM 8.6 °F -4.7 °F 2.5 °F 76% 30.06 in 10.0 mi West 9.2 mph - N/A   Clear
7:56 PM 8.6 °F -1.3 °F 2.5 °F 76% 30.07 in 10.0 mi West 5.8 mph - N/A   Clear
8:17 PM 8.1 °F -2.0 °F 2.3 °F 77% 30.07 in 10.0 mi West 5.8 mph - N/A   Clear
8:37 PM 7.5 °F -2.6 °F 2.1 °F 79% 30.08 in 10.0 mi West 5.8 mph - N/A   Clear
8:57 PM 7.7 °F -3.7 °F 2.3 °F 79% 30.08 in 10.0 mi West 6.9 mph - N/A   Clear
9:17 PM 7.7 °F -4.8 °F 2.3 °F 79% 30.08 in 10.0 mi West 8.1 mph - N/A   Clear
9:36 PM 8.6 °F -4.7 °F 3.0 °F 78% 30.09 in 10.0 mi West 9.2 mph - N/A   Clear
9:57 PM 8.8 °F -4.4 °F 2.8 °F 77% 30.09 in 10.0 mi West 9.2 mph - N/A   Clear
10:16 PM 8.4 °F -5.7 °F 2.3 °F 76% 30.10 in 10.0 mi West 10.4 mph - N/A   Clear
10:37 PM 8.1 °F -6.2 °F 1.8 °F 75% 30.10 in 10.0 mi West 10.4 mph - N/A   Clear
10:56 PM 7.7 °F -6.6 °F 1.2 °F 75% 30.11 in 10.0 mi West 10.4 mph 16.1 mph N/A   Clear
11:17 PM 7.3 °F -4.1 °F 0.5 °F 74% 30.12 in 10.0 mi West 6.9 mph - N/A   Clear
11:37 PM 6.6 °F -7.1 °F 0.3 °F 75% 30.13 in 10.0 mi West 9.2 mph - N/A   Clear
11:56 PM 6.4 °F -6.3 °F 0.1 °F 75% 30.13 in 10.0 mi West 8.1 mph - N/A   Clear